Home   Weather   Kitakyushu   Past weeks

Flag for Japan Past Weather in Kitakyushu, Japan — Yesterday and Last 2 Weeks

Now
45 °F

Sunny.


Feels Like: 45 °F
Forecast: 40 / 48 °F
Wind: 2 mph from North

Location: Kitakyushu Airport

Current Time: Feb 20, 2018 at 10:30:19 am

Latest Report: Feb 20, 2018 at 9:00 am


Visibility: 10 mi

Pressure: 30.18 "Hg

Humidity: 71%

Dew Point: 36 °F

Location of KitakyushuLocation

Past Weather in Kitakyushu — Graph

°F

Kitakyushu Temperature Yesterday

Maximum temperature yesterday: 45 °F (at 9:00 am)
Minimum temperature yesterday: 43 °F (at 12:00 am)
Average temperature yesterday: 44 °F

High & Low Weather Summary for the Past Weeks

 TemperatureHumidityPressure
High55 °F (Feb 14, 2:40 pm)93% (Feb 10, 5:48 am)30.30 "Hg (Feb 10, 5:48 am)
Low30 °F (Feb 5, 10:01 am)30% (Feb 11, 1:00 pm)29.92 "Hg (Feb 16, 6:00 pm)
Average39 °F65%30.13 "Hg
* Reported Feb 5 9:00 am — Feb 20 9:00 am, Kitakyushu. Weather by CustomWeather, © 2018

Note: Actual official high and low records may vary slightly from our data, if they occured in-between our weather recording intervals... More about our weather records

Advertising

Kitakyushu Weather History for the Previous 24 Hours

Scroll right to see more
 ConditionsComfort  
Time TempWeatherWind HumidityBarometerVisibility
9:00 am
Tue, Feb 20
45 °FSunny.2 mph71%30.18 "Hg10 mi
8:00 am41 °FPassing clouds.5 mph81%30.15 "HgN/A
7:00 am37 °FSunny.2 mph81%30.09 "Hg10 mi
6:00 am39 °FPassing clouds.2 mph81%30.12 "HgN/A
5:00 am39 °FPassing clouds.5 mph81%30.12 "HgN/A
4:00 am41 °FPassing clouds.5 mph76%30.09 "HgN/A
3:00 am43 °FPassing clouds.5 mph76%30.09 "HgN/A
2:00 am43 °FPassing clouds.5 mph81%30.09 "HgN/A
1:00 am45 °FPassing clouds.2 mph76%30.09 "HgN/A
12:00 am45 °FPassing clouds.3 mph71%30.09 "HgN/A
11:00 pm
Mon, Feb 19
45 °FPassing clouds.5 mph71%30.12 "HgN/A
10:00 pm45 °FPartly cloudy.5 mph76%30.12 "HgN/A
9:00 pm45 °FPassing clouds.3 mph71%30.12 "HgN/A
8:00 pm45 °FPartly cloudy.1 mph61%30.09 "HgN/A
7:00 pm45 °FPartly cloudy.1 mph71%30.09 "HgN/A
6:00 pm45 °FPartly sunny.1 mph66%30.07 "HgN/A
5:00 pm45 °FBroken clouds.3 mph71%30.07 "HgN/A
4:00 pm45 °FBroken clouds.3 mph71%30.09 "HgN/A
3:00 pm45 °FPartly sunny.2 mph71%30.07 "HgN/A
2:00 pm45 °FBroken clouds.1 mph66%30.09 "HgN/A
1:00 pm45 °FBroken clouds.2 mph76%30.12 "HgN/A
12:00 pm45 °FMostly cloudy.1 mph76%30.15 "HgN/A
11:00 am45 °FPartly sunny.No wind76%30.18 "HgN/A
10:00 am45 °FBroken clouds.2 mph76%30.18 "HgN/A
Weather by CustomWeather, © 2018

See weather overview